This is the latest recevied weather packets stored in our database for station/object DM3DP. If no packets are shown the sender has not sent any weather packets the latest 1 day(s).
| Time | Temp. | Humidity | Pressure | Rain* | Wind** | Luminosity | Snow |
|---|---|---|---|---|---|---|---|
| 1777993282 | 16.67° C | 99% | 1005.3 hPa | 0 mm | 1.79 m/s, 196° | 74 W/m² | - |
| 1777992951 | 17.22° C | 99% | 1005.3 hPa | 0 mm | 1.34 m/s, 171° | 79 W/m² | - |
| 1777992621 | 17.22° C | 99% | 1005.3 hPa | 0 mm | 2.24 m/s, 215° | 80 W/m² | - |
| 1777992291 | 17.22° C | 99% | 1005.4 hPa | 0 mm | 0.89 m/s, 305° | 75 W/m² | - |
| 1777991961 | 17.22° C | 99% | 1005.5 hPa | 0 mm | 1.79 m/s, 277° | 74 W/m² | - |
| 1777991631 | 17.22° C | 99% | 1005.5 hPa | 0 mm | 0.89 m/s, 180° | 85 W/m² | - |
| 1777991301 | 17.22° C | 99% | 1005.6 hPa | 0 mm | 1.34 m/s, 305° | 90 W/m² | - |
| 1777990971 | 17.78° C | 99% | 1005.6 hPa | 0 mm | 1.79 m/s, 173° | 81 W/m² | - |
| 1777990641 | 17.78° C | 99% | 1005.6 hPa | 0 mm | 0.89 m/s, 308° | 70 W/m² | - |
| 1777990311 | 17.78° C | 99% | 1005.6 hPa | 0 mm | 1.34 m/s, 189° | 79 W/m² | - |
| 1777989981 | 17.78° C | 99% | 1005.6 hPa | 0 mm | 1.79 m/s, 318° | 101 W/m² | - |
| 1777989651 | 17.78° C | 99% | 1005.6 hPa | 0 mm | 1.79 m/s, 116° | 107 W/m² | - |
| 1777989322 | 17.78° C | 99% | 1005.6 hPa | 0 mm | 1.34 m/s, 199° | 128 W/m² | - |
| 1777988991 | 17.78° C | 99% | 1005.6 hPa | 0 mm | 2.24 m/s, 235° | 110 W/m² | - |
| 1777988662 | 17.78° C | 99% | 1005.7 hPa | 0 mm | 1.79 m/s, 328° | 149 W/m² | - |
| 1777988331 | 17.78° C | 99% | 1005.9 hPa | 0 mm | 0.89 m/s, 182° | 215 W/m² | - |
| 1777988001 | 18.33° C | 99% | 1005.9 hPa | 0 mm | 1.34 m/s, 181° | 181 W/m² | - |
| 1777987671 | 17.78° C | 99% | 1005.9 hPa | 0 mm | 0.89 m/s, 216° | 214 W/m² | - |
| 1777987341 | 17.78° C | 99% | 1005.9 hPa | 0 mm | 1.34 m/s, 209° | 211 W/m² | - |
| 1777987012 | 17.78° C | 99% | 1006 hPa | 0 mm | 1.34 m/s, 39° | 243 W/m² | - |
| 1777986681 | 17.78° C | 99% | 1006.2 hPa | 0 mm | 0.89 m/s, 335° | 207 W/m² | - |
| 1777986351 | 17.78° C | 99% | 1006.2 hPa | 0 mm | 0.45 m/s, 90° | 178 W/m² | - |
| 1777986022 | 17.78° C | 99% | 1006.3 hPa | 0 mm | 1.79 m/s, 175° | 198 W/m² | - |
| 1777985691 | 17.22° C | 99% | 1006.3 hPa | 0 mm | 1.79 m/s, 183° | 194 W/m² | - |
| 1777985361 | 17.22° C | 99% | 1006.4 hPa | 0 mm | 1.34 m/s, 176° | 223 W/m² | - |
* Rain latest hour (hover to see other rain measurements)
** Current wind speed in m/s (hover to see current wind gust speed)